WetterOnline ( http://www.wetteronline.de )

Wetter aktuell Karlsruhe

Aktuelles Wetter: Rheinstetten (116m)

6-stündlich | Neueste Meldungen
Ortszeit Temperatur Wetter
So, 19.08. 2:00 17.3° C wolkig
Sa, 18.08. 20:00 26.6° C fast wolkenlos
Sa, 18.08. 14:00 25.5° C wolkenlos
Sa, 18.08. 8:00 15.8° C Nebel
Sa, 18.08. 2:00 18.2° C bedeckt
Fr, 17.08. 20:00 22.0° C wolkig
Fr, 17.08. 14:00 29.5° C fast wolkenlos
Fr, 17.08. 8:00 18.4° C fast wolkenlos
Ortszeit Temperatur Wetter
So, 19.08. 4:00 17.4° C bedeckt
So, 19.08. 3:50 17.4° C bedeckt
So, 19.08. 3:40 17.5° C bewölkt
So, 19.08. 3:30 17.6° C bewölkt
So, 19.08. 3:20 17.6° C bewölkt
So, 19.08. 3:10 17.6° C bewölkt
So, 19.08. 3:00 17.5° C bewölkt
So, 19.08. 2:30 17.3° C bewölkt
So, 19.08. 2:00 17.3° C wolkig
So, 19.08. 1:30 18.1° C wolkig
So, 19.08. 1:00 18.6° C wolkig
Ortszeit Relative Feuchte Sichtweite
So, 19.08. 2:00 82% 16 km
Sa, 18.08. 20:00 45% 30 km
Sa, 18.08. 14:00 48% 21 km
Sa, 18.08. 8:00 99% 0.7 km
Sa, 18.08. 2:00 94% 12 km
Fr, 17.08. 20:00 67% 35 km
Fr, 17.08. 14:00 39% 17 km
Fr, 17.08. 8:00 79% 19 km
Ortszeit Relative Feuchte Sichtweite
So, 19.08. 4:00 80% 20 km
So, 19.08. 3:50 80% -
So, 19.08. 3:40 79% -
So, 19.08. 3:30 80% 20 km
So, 19.08. 3:20 80% -
So, 19.08. 3:10 78% -
So, 19.08. 3:00 79% 20 km
So, 19.08. 2:30 81% 17 km
So, 19.08. 2:00 82% 16 km
So, 19.08. 1:30 80% 16 km
So, 19.08. 1:00 78% 16 km
Ortszeit Niederschlagsmenge Niederschlagsart
So, 19.08. 2:00 0.0 l/m2 in 6 Std. -
Sa, 18.08. 20:00 0.0 l/m2 in 12 Std. -
Sa, 18.08. 14:00 0.0 l/m2 in 6 Std. -
Sa, 18.08. 8:00 0.6 l/m2 in 12 Std. -
Sa, 18.08. 2:00 0.6 l/m2 in 6 Std. Regen
Fr, 17.08. 20:00 0.1 l/m2 in 12 Std. Regen
Fr, 17.08. 14:00 0.0 l/m2 in 6 Std. -
Fr, 17.08. 8:00 0.0 l/m2 in 12 Std. -
Ortszeit Niederschlagsmenge Niederschlagsart
So, 19.08. 4:00 0.0 l/m2 in 1 Std. -
So, 19.08. 3:50 keine Meldung -
So, 19.08. 3:40 keine Meldung -
So, 19.08. 3:30 0.0 l/m2 in 1 Std. -
So, 19.08. 3:20 keine Meldung -
So, 19.08. 3:10 keine Meldung -
So, 19.08. 3:00 0.0 l/m2 in 1 Std. -
So, 19.08. 2:30 0.0 l/m2 in 1 Std. -
So, 19.08. 2:00 0.0 l/m2 in 1 Std. -
So, 19.08. 1:30 0.0 l/m2 in 1 Std. -
So, 19.08. 1:00 0.0 l/m2 in 1 Std. -
Ortszeit Stärke Spitze Richtung
km/h Bft. km/h Grad Sektor
So, 19.08. 2:00 4 1 7 280° W
Sa, 18.08. 20:00 7 2 29 270° W
Sa, 18.08. 14:00 7 2 22 330° NW
Sa, 18.08. 8:00 7 2 11 210° SW
Sa, 18.08. 2:00 4 1 25 300° NW
Fr, 17.08. 20:00 18 3 43 270° W
Fr, 17.08. 14:00 9 2 24 350° N
Fr, 17.08. 8:00 4 1 11 200° S
Ortszeit Stärke Spitze Richtung
km/h Bft. km/h Grad Sektor
So, 19.08. 4:00 2 1 4 80° O
So, 19.08. 3:50 2 1 - 80° O
So, 19.08. 3:40 4 1 - 120° SO
So, 19.08. 3:30 0 0 4 - -
So, 19.08. 3:20 2 1 - 100° O
So, 19.08. 3:10 2 1 - 10° N
So, 19.08. 3:00 2 1 6 170° S
So, 19.08. 2:30 4 1 7 200° S
So, 19.08. 2:00 4 1 7 280° W
So, 19.08. 1:30 6 1 6 220° SW
So, 19.08. 1:00 4 1 7 220° SW
Ortszeit Untergrenze Bedeckung Gattung
total tief tief mittel hoch
So, 19.08. 2:00 2400 m 8/8 2/8 - - -
Sa, 18.08. 20:00 3000 m 1/8 1/8 - - -
Sa, 18.08. 14:00 - 0/8 0/8 - - -
Sa, 18.08. 8:00 <30 m 6/8 6/8 - - -
Sa, 18.08. 2:00 5100 m 8/8 8/8 - - -
Fr, 17.08. 20:00 2100 m 7/8 2/8 - - -
Fr, 17.08. 14:00 7800 m 2/8 0/8 - - -
Fr, 17.08. 8:00 9000 m 1/8 0/8 - - -
Ortszeit Bedeckungsgrad in Achtel und Wolkenuntergrenze
So, 19.08. 4:00 6(2100m) 8(2700m)
So, 19.08. 3:50 6(2100m) 8(2700m)
So, 19.08. 3:40 7(1800m) 7(3000m)
So, 19.08. 3:30 7(2100m) 7(2400m)
So, 19.08. 3:20 7(2100m) 7(2400m)
So, 19.08. 3:10 7(2100m) 7(2400m)
So, 19.08. 3:00 7(2100m) 7(2400m)
So, 19.08. 2:30 4(2100m) 5(2700m) 8(10500m)
So, 19.08. 2:00 2(2400m) 8(10500m)
So, 19.08. 1:30 8(10500m) 8(10500m)
So, 19.08. 1:00 8(10500m)
Ortszeit Luftdruck NN (hPa) Tendenz (hPa in 3 Std.)
So, 19.08. 2:00 1022 0,0
Sa, 18.08. 20:00 1020 - 0,4
Sa, 18.08. 14:00 1022 - 0,5
Sa, 18.08. 8:00 1022 + 1,1
Sa, 18.08. 2:00 1020 + 1,1
Fr, 17.08. 20:00 1017 + 2,5
Fr, 17.08. 14:00 1014 - 0,3
Fr, 17.08. 8:00 1014 + 1,4
Ortszeit Luftdruck NN (hPa) Tendenz (hPa in 3 Std.)
So, 19.08. 4:00 1022 - 0,2
So, 19.08. 3:50 1022 keine Meldung
So, 19.08. 3:40 1022 keine Meldung
So, 19.08. 3:30 1022 - 0,2
So, 19.08. 3:20 1022 keine Meldung
So, 19.08. 3:10 1022 keine Meldung
So, 19.08. 3:00 1022 - 0,3
So, 19.08. 2:30 1022 - 0,3
So, 19.08. 2:00 1022 0,0
So, 19.08. 1:30 1022 + 0,3
So, 19.08. 1:00 1022 + 0,7
Ortszeit Schneehöhe (cm)
So, 19.08. 2:00 -
Sa, 18.08. 20:00 -
Sa, 18.08. 14:00 -
Sa, 18.08. 8:00 -
Sa, 18.08. 2:00 -
Fr, 17.08. 20:00 -
Fr, 17.08. 14:00 -
Fr, 17.08. 8:00 -
Ortszeit Schneehöhe (cm)
So, 19.08. 4:00 -
So, 19.08. 3:50 -
So, 19.08. 3:40 -
So, 19.08. 3:30 -
So, 19.08. 3:20 -
So, 19.08. 3:10 -
So, 19.08. 3:00 -
So, 19.08. 2:30 -
So, 19.08. 2:00 -
So, 19.08. 1:30 -
So, 19.08. 1:00 -
Link zu dieser Seite / Seite empfehlen

Das Wetter in ...